When you browse on this site, cookies collect data to enhance your experience and personalize the content and advertising you see.
Visit our Privacy Policy to learn more. By continuing to use the site, you agree to this use of cookies and data.
  • In France
  • List of Countries
  • For 7 days
  • Water Temperature
  • Weather Map
  • Weather Widgets
  • user-avatar
    Login

    Hourly Weather Wangbuzhuang

    Today, 21 October, Monday

    Time Temperature Precipitation Wind Pressure Humidity
    00:00 +13°C° 0 mm 1 mps 765 mmHg 24%
    01:00 +13°C° 0 mm 2 mps 765 mmHg 24%
    02:00 +12°C° 0 mm 1 mps 765 mmHg 25%
    03:00 +10°C° 0 mm 2 mps 765 mmHg 25%
    04:00 +10°C° 0 mm 2 mps 765 mmHg 25%
    05:00 +9°C° 0 mm 2 mps 765 mmHg 25%
    06:00 +10°C° 0 mm 2 mps 765 mmHg 24%
    07:00 +12°C° 0 mm 2 mps 766 mmHg 23%
    08:00 +13°C° 0 mm 2 mps 766 mmHg 22%
    09:00 +16°C° 0 mm 2 mps 766 mmHg 19%
    10:00 +18°C° 0 mm 2 mps 766 mmHg 16%
    11:00 +20°C° 0 mm 2 mps 765 mmHg 14%
    12:00 +21°C° 0 mm 2 mps 765 mmHg 13%
    13:00 +23°C° 0 mm 2 mps 764 mmHg 13%
    14:00 +23°C° 0 mm 2 mps 763 mmHg 13%
    15:00 +21°C° 0 mm 2 mps 763 mmHg 16%
    16:00 +20°C° 0 mm 2 mps 763 mmHg 18%
    17:00 +19°C° 0 mm 2 mps 763 mmHg 21%
    18:00 +18°C° 0 mm 2 mps 763 mmHg 30%
    19:00 +16°C° 0 mm 2 mps 763 mmHg 39%
    20:00 +14°C° 0 mm 2 mps 763 mmHg 47%
    21:00 +14°C° 0 mm 2 mps 763 mmHg 51%
    22:00 +13°C° 0 mm 1 mps 764 mmHg 55%
    23:00 +13°C° 0 mm 1 mps 764 mmHg 59%

    Tomorrow, 22 October, Tuesday

    Time Temperature Precipitation Wind Pressure Humidity
    00:00 +12°C° 0 mm 1 mps 764 mmHg 61%
    01:00 +12°C° 0 mm 1 mps 764 mmHg 63%
    02:00 +11°C° 0 mm 1 mps 763 mmHg 65%
    03:00 +11°C° 0 mm 1 mps 763 mmHg 66%
    04:00 +11°C° 0 mm 1 mps 763 mmHg 68%
    05:00 +10°C° 0 mm 1 mps 763 mmHg 70%
    06:00 +11°C° 0 mm 1 mps 763 mmHg 66%
    07:00 +12°C° 0 mm 1 mps 763 mmHg 62%
    08:00 +13°C° 0 mm 1 mps 764 mmHg 58%
    09:00 +16°C° 0 mm 1 mps 763 mmHg 50%
    10:00 +19°C° 0 mm 1 mps 763 mmHg 42%
    11:00 +21°C° 0 mm 1 mps 763 mmHg 35%
    12:00 +23°C° 0 mm 2 mps 763 mmHg 31%
    13:00 +24°C° 0 mm 2 mps 762 mmHg 27%
    14:00 +25°C° 0 mm 3 mps 762 mmHg 23%
    15:00 +24°C° 0 mm 2 mps 762 mmHg 25%
    16:00 +23°C° 0 mm 2 mps 762 mmHg 27%
    17:00 +22°C° 0 mm 1 mps 762 mmHg 28%
    18:00 +20°C° 0 mm 1 mps 762 mmHg 31%
    19:00 +19°C° 0 mm 1 mps 762 mmHg 35%
    20:00 +18°C° 0 mm 1 mps 762 mmHg 38%
    21:00 +16°C° 0 mm 1 mps 763 mmHg 40%
    22:00 +16°C° 0 mm 1 mps 763 mmHg 42%
    23:00 +15°C° 0 mm 1 mps 763 mmHg 44%

    Day after tomorrow, 23 October, Wednesday

    Time Temperature Precipitation Wind Pressure Humidity
    00:00 +15°C° 0 mm 1 mps 763 mmHg 47%
    01:00 +14°C° 0 mm 1 mps 763 mmHg 49%
    02:00 +14°C° 0 mm 1 mps 763 mmHg 52%
    03:00 +14°C° 0 mm 1 mps 763 mmHg 56%
    04:00 +13°C° 0 mm 1 mps 763 mmHg 59%
    05:00 +13°C° 0 mm 2 mps 762 mmHg 62%
    06:00 +14°C° 0 mm 2 mps 763 mmHg 60%
    07:00 +15°C° 0 mm 1 mps 763 mmHg 58%
    08:00 +15°C° 0 mm 1 mps 764 mmHg 55%
    09:00 +18°C° 0 mm 2 mps 764 mmHg 48%
    10:00 +20°C° 0 mm 2 mps 764 mmHg 41%
    11:00 +24°C° 0 mm 2 mps 764 mmHg 34%
    12:00 +25°C° 0 mm 2 mps 763 mmHg 32%
    13:00 +26°C° 0 mm 3 mps 763 mmHg 30%
    14:00 +27°C° 0 mm 3 mps 762 mmHg 28%
    15:00 +26°C° 0 mm 3 mps 762 mmHg 32%
    16:00 +25°C° 0 mm 3 mps 762 mmHg 35%
    17:00 +22°C° 0 mm 3 mps 762 mmHg 38%
    18:00 +21°C° 0 mm 3 mps 763 mmHg 42%
    19:00 +19°C° 0 mm 2 mps 763 mmHg 47%
    20:00 +17°C° 0 mm 2 mps 763 mmHg 51%
    21:00 +17°C° 0 mm 2 mps 764 mmHg 53%
    22:00 +17°C° 0 mm 2 mps 764 mmHg 56%
    23:00 +16°C° 0 mm 2 mps 764 mmHg 58%

    24 October, Thursday

    Time Temperature Precipitation Wind Pressure Humidity
    00:00 +16°C° 0 mm 3 mps 764 mmHg 59%
    01:00 +16°C° 0 mm 3 mps 764 mmHg 61%
    02:00 +14°C° 0 mm 3 mps 764 mmHg 62%
    03:00 +14°C° 0 mm 3 mps 764 mmHg 65%
    04:00 +13°C° 0 mm 3 mps 764 mmHg 68%
    05:00 +14°C° 0 mm 2 mps 764 mmHg 70%
    06:00 +14°C° 0 mm 3 mps 764 mmHg 68%
    07:00 +14°C° 0 mm 3 mps 764 mmHg 65%
    08:00 +16°C° 0 mm 3 mps 764 mmHg 63%
    09:00 +19°C° 0 mm 3 mps 764 mmHg 53%
    10:00 +21°C° 0 mm 2 mps 763 mmHg 44%
    11:00 +25°C° 0 mm 2 mps 763 mmHg 34%
    12:00 +23°C° 0 mm 4 mps 763 mmHg 36%
    13:00 +22°C° 0 mm 6 mps 763 mmHg 38%
    14:00 +21°C° 0 mm 9 mps 763 mmHg 40%
    15:00 +20°C° 0.1 mm 8 mps 763 mmHg 44%
    16:00 +17°C° 0.1 mm 7 mps 764 mmHg 48%
    17:00 +15°C° 0.1 mm 6 mps 764 mmHg 53%
    18:00 +15°C° 0.2 mm 5 mps 764 mmHg 51%
    19:00 +15°C° 0.2 mm 5 mps 765 mmHg 50%
    20:00 +15°C° 0.2 mm 4 mps 766 mmHg 49%
    21:00 +14°C° 0 mm 4 mps 766 mmHg 47%
    22:00 +13°C° 0 mm 4 mps 767 mmHg 45%
    23:00 +12°C° 0 mm 4 mps 768 mmHg 44%

    25 October, Friday

    Time Temperature Precipitation Wind Pressure Humidity
    00:00 +10°C° 0 mm 5 mps 768 mmHg 42%
    01:00 +9°C° 0 mm 5 mps 769 mmHg 40%
    02:00 +8°C° 0 mm 5 mps 769 mmHg 38%
    03:00 +7°C° 0 mm 5 mps 770 mmHg 39%
    04:00 +6°C° 0 mm 4 mps 770 mmHg 41%
    05:00 +5°C° 0 mm 4 mps 770 mmHg 42%
    06:00 +7°C° 0 mm 3 mps 771 mmHg 41%
    07:00 +7°C° 0 mm 3 mps 771 mmHg 40%
    08:00 +8°C° 0 mm 3 mps 772 mmHg 39%
    09:00 +9°C° 0 mm 3 mps 772 mmHg 33%
    10:00 +11°C° 0 mm 3 mps 771 mmHg 28%
    11:00 +12°C° 0 mm 3 mps 771 mmHg 23%
    12:00 +14°C° 0 mm 2 mps 771 mmHg 21%
    13:00 +15°C° 0 mm 2 mps 770 mmHg 19%
    14:00 +16°C° 0 mm 2 mps 770 mmHg 17%
    15:00 +15°C° 0 mm 2 mps 770 mmHg 18%
    16:00 +14°C° 0 mm 1 mps 769 mmHg 19%
    17:00 +13°C° 0 mm 1 mps 769 mmHg 20%
    18:00 +12°C° 0 mm 1 mps 770 mmHg 22%
    19:00 +11°C° 0 mm 1 mps 770 mmHg 23%
    20:00 +9°C° 0 mm 0 mps 770 mmHg 25%
    21:00 +8°C° 0 mm 0 mps 770 mmHg 26%
    22:00 +8°C° 0 mm 0 mps 770 mmHg 28%
    23:00 +7°C° 0 mm 0 mps 770 mmHg 29%

    26 October, Saturday

    Time Temperature Precipitation Wind Pressure Humidity
    00:00 +7°C° 0 mm 0 mps 770 mmHg 30%
    01:00 +6°C° 0 mm 0 mps 770 mmHg 30%
    02:00 +6°C° 0 mm 0 mps 770 mmHg 31%
    03:00 +6°C° 0 mm 0 mps 770 mmHg 32%
    04:00 +5°C° 0 mm 0 mps 770 mmHg 32%
    05:00 +5°C° 0 mm 0 mps 770 mmHg 33%
    06:00 +7°C° 0 mm 1 mps 770 mmHg 31%
    07:00 +8°C° 0 mm 1 mps 770 mmHg 29%
    08:00 +9°C° 0 mm 1 mps 770 mmHg 27%
    09:00 +11°C° 0 mm 1 mps 769 mmHg 25%
    10:00 +13°C° 0 mm 2 mps 769 mmHg 22%
    11:00 +16°C° 0 mm 3 mps 768 mmHg 19%
    12:00 +16°C° 0 mm 3 mps 767 mmHg 19%
    13:00 +17°C° 0 mm 4 mps 767 mmHg 19%
    14:00 +18°C° 0 mm 4 mps 766 mmHg 19%
    15:00 +17°C° 0 mm 4 mps 765 mmHg 21%
    16:00 +16°C° 0 mm 3 mps 765 mmHg 24%
    17:00 +15°C° 0 mm 2 mps 765 mmHg 26%
    18:00 +14°C° 0 mm 2 mps 765 mmHg 28%
    19:00 +14°C° 0 mm 2 mps 765 mmHg 30%
    20:00 +13°C° 0 mm 2 mps 765 mmHg 32%
    21:00 +13°C° 0 mm 2 mps 764 mmHg 33%
    22:00 +13°C° 0 mm 2 mps 764 mmHg 34%
    23:00 +12°C° 0 mm 1 mps 764 mmHg 35%

    27 October, Sunday

    Time Temperature Precipitation Wind Pressure Humidity
    00:00 +12°C° 0 mm 1 mps 764 mmHg 36%
    01:00 +11°C° 0 mm 1 mps 763 mmHg 37%
    02:00 +11°C° 0 mm 1 mps 763 mmHg 38%
    03:00 +11°C° 0 mm 1 mps 763 mmHg 39%
    04:00 +9°C° 0 mm 2 mps 763 mmHg 41%
    05:00 +9°C° 0 mm 2 mps 762 mmHg 42%
    06:00 +10°C° 0 mm 2 mps 763 mmHg 41%
    07:00 +10°C° 0 mm 2 mps 763 mmHg 39%
    08:00 +12°C° 0 mm 2 mps 763 mmHg 38%
    09:00 +13°C° 0 mm 3 mps 763 mmHg 31%
    10:00 +17°C° 0 mm 3 mps 763 mmHg 25%
    11:00 +20°C° 0 mm 4 mps 763 mmHg 18%
    12:00 +20°C° 0 mm 4 mps 762 mmHg 16%
    13:00 +21°C° 0 mm 4 mps 761 mmHg 15%
    14:00 +22°C° 0 mm 5 mps 761 mmHg 13%
    15:00 +20°C° 0 mm 4 mps 760 mmHg 15%
    16:00 +19°C° 0 mm 3 mps 760 mmHg 16%
    17:00 +18°C° 0 mm 2 mps 760 mmHg 18%
    18:00 +17°C° 0 mm 2 mps 760 mmHg 21%
    19:00 +15°C° 0 mm 2 mps 760 mmHg 24%
    20:00 +14°C° 0 mm 2 mps 760 mmHg 27%
    21:00 +14°C° 0 mm 2 mps 760 mmHg 29%
    22:00 +13°C° 0 mm 1 mps 760 mmHg 31%
    23:00 +12°C° 0 mm 1 mps 760 mmHg 33%
    Show more